Morrisville, VT

8:06 AM EST on November 22, 2017 (GMT -0500)
Morrisville Stowe State

Weather History for KMVL - October, 2012

Change the Weather History Date:

Saturday, October 6, 2012

  Actual Average Record
Temperature  
Mean Temperature 54 °F 49 °F  
Max Temperature 60 °F 61 °F 80 °F (2005)
Min Temperature 47 °F 38 °F 24 °F (1996)
Degree Days  
Heating Degree Days 11 16  
Month to date heating degree days 40 89  
Since 1 July heating degree days 326 421  
Cooling Degree Days 0 0  
Month to date cooling degree days 0 0  
Year to date cooling degree days 408 265  
Growing Degree Days 4 (Base 50)    
Moisture  
Dew Point 52 °F    
Average Humidity 81    
Maximum Humidity 100    
Minimum Humidity 61    
Precipitation  
Precipitation 0.26 in 0.11 in 0.45 in (2007)
Month to date precipitation 0.68 0.68  
Year to date precipitation 14.23 27.81  
Sea Level Pressure  
Sea Level Pressure 29.79 in    
Wind  
Wind Speed 3 mph (NNE)    
Max Wind Speed 12 mph    
Max Gust Speed 20 mph    
Visibility 5 miles    
Events Fog , Rain    
T = Trace of Precipitation, MM = Missing Value Source: NWS Daily Summary

Daily Weather History Graph

Daily Weather History Graph

Search for Another Location

Airport or City:

Trip Planner

Search our weather history database for the weather conditions in past years. The results will help you decide how hot, cold, wet, or windy it might be!

Date:

Astronomy

Oct. 06, 2012 Rise Set
Actual Time 6:54 AM EDT 6:21 PM EDT
Civil Twilight 6:25 AM EDT 6:50 PM EDT
Nautical Twilight 5:52 AM EDT 7:23 PM EDT
Astronomical Twilight 5:18 AM EDT 7:57 PM EDT
Moon 10:23 PM EDT (10/6) 12:58 PM EDT (10/6)
Length of Visible Light 12h 24m
Length of Day
11h 26m
Waning Gibbous, 65% of the Moon is Illuminated
Oct 6
Waning Gibbous
Oct 8
Last Quarter
Oct 15
New
Oct 21
First Quarter
Oct 29
Full

Hourly Weather History & Observations

Time (EDT) Temp. Dew Point Humidity Pressure Visibility Wind Dir Wind Speed Gust Speed Precip Events Conditions
12:54 AM 60.1 °F 57.9 °F 93% 29.87 in 4.0 mi Calm Calm - 0.03 in Rain Light Rain
1:47 AM 60.8 °F 57.2 °F 88% 29.85 in 2.5 mi Calm Calm - 0.01 in   Overcast
1:54 AM 60.1 °F 57.9 °F 93% 29.84 in 2.5 mi Calm Calm - 0.01 in   Overcast
2:06 AM 60.8 °F 57.2 °F 88% 29.84 in 3.0 mi Calm Calm - N/A   Overcast
2:14 AM 60.8 °F 57.2 °F 88% 29.84 in 2.5 mi Calm Calm - N/A   Overcast
2:51 AM 59.0 °F 57.2 °F 94% 29.82 in 1.0 mi Calm Calm - 0.00 in Rain Light Rain
2:54 AM 59.0 °F 57.0 °F 93% 29.82 in 0.8 mi Calm Calm - 0.00 in Rain Light Rain
3:02 AM 59.0 °F 57.2 °F 94% 29.82 in 1.0 mi Calm Calm - 0.00 in Rain Light Rain
3:11 AM 59.0 °F 57.2 °F 94% 29.81 in 1.8 mi Calm Calm - 0.00 in   Overcast
3:25 AM 59.0 °F 57.2 °F 94% 29.81 in 0.8 mi Calm Calm - 0.00 in   Overcast
3:54 AM 59.0 °F 57.9 °F 96% 29.80 in 1.5 mi Calm Calm - 0.00 in   Overcast
4:05 AM 59.0 °F 57.2 °F 94% 29.78 in 1.0 mi Calm Calm - 0.00 in Rain Light Rain
4:09 AM 59.0 °F 57.2 °F 94% 29.78 in 0.5 mi Calm Calm - 0.00 in Fog , Rain Light Rain
4:23 AM 59.0 °F 57.2 °F 94% 29.78 in 1.2 mi Calm Calm - 0.01 in Rain Light Rain
4:34 AM 59.0 °F 57.2 °F 94% 29.77 in 2.0 mi Calm Calm - 0.01 in   Overcast
4:41 AM 59.0 °F 57.2 °F 94% 29.77 in 1.0 mi Calm Calm - 0.01 in   Overcast
4:45 AM 59.0 °F 57.2 °F 94% 29.77 in 0.8 mi Calm Calm - 0.01 in   Overcast
4:54 AM 59.0 °F 57.0 °F 93% 29.77 in 0.5 mi Calm Calm - 0.01 in Fog Fog
5:54 AM 57.9 °F 57.0 °F 97% 29.75 in 0.2 mi Calm Calm - 0.00 in Fog Fog
6:54 AM 57.9 °F 55.9 °F 93% 29.73 in 0.2 mi Calm Calm - 0.00 in Fog Fog
7:54 AM 57.9 °F 57.0 °F 97% 29.73 in 0.2 mi Calm Calm - N/A Fog Fog
8:24 AM 57.2 °F 57.2 °F 100% 29.71 in 1.2 mi Calm Calm - 0.00 in Rain Light Rain
8:29 AM 57.2 °F 57.2 °F 100% 29.71 in 2.5 mi North 3.5 mph - 0.00 in Rain Light Rain
8:36 AM 57.2 °F 57.2 °F 100% 29.71 in 4.0 mi North 4.6 mph - 0.00 in   Mostly Cloudy
8:54 AM 57.0 °F 55.9 °F 96% 29.71 in 6.0 mi North 5.8 mph - 0.00 in   Mostly Cloudy
9:54 AM 57.0 °F 55.0 °F 93% 29.70 in 6.0 mi NNE 6.9 mph - 0.00 in   Overcast
10:54 AM 55.0 °F 50.0 °F 83% 29.74 in 10.0 mi NW 8.1 mph 17.3 mph N/A   Overcast
11:04 AM 53.6 °F 51.8 °F 94% 29.73 in 10.0 mi Calm Calm - N/A   Overcast
11:54 AM 51.1 °F 48.9 °F 92% 29.75 in 3.0 mi NNE 4.6 mph - 0.04 in Rain Rain
11:57 AM 51.8 °F 48.2 °F 88% 29.75 in 2.5 mi North 3.5 mph - 0.01 in Rain Rain
12:06 PM 51.8 °F 48.2 °F 88% 29.74 in 3.0 mi NE 5.8 mph - 0.03 in Rain Rain
12:54 PM 50.0 °F 48.0 °F 93% 29.77 in 4.0 mi North 5.8 mph - 0.10 in Rain Light Rain
1:09 PM 51.8 °F 48.2 °F 88% 29.76 in 2.5 mi NNE 3.5 mph - 0.02 in Rain Light Rain
1:19 PM 50.0 °F 48.2 °F 94% 29.77 in 5.0 mi North 3.5 mph - 0.03 in Rain Light Rain
1:32 PM 50.0 °F 48.2 °F 94% 29.77 in 4.0 mi NNE 4.6 mph - 0.04 in Rain Light Rain
1:54 PM 50.0 °F 48.0 °F 93% 29.78 in 10.0 mi ESE 3.5 mph - 0.04 in Rain Light Rain
2:18 PM 51.8 °F 48.2 °F 88% 29.78 in 10.0 mi Calm Calm - 0.01 in Rain Light Rain
2:29 PM 51.8 °F 48.2 °F 88% 29.78 in 5.0 mi Calm Calm - 0.02 in Rain Light Rain
2:54 PM 50.0 °F 46.9 °F 89% 29.79 in 10.0 mi Variable 4.6 mph - 0.02 in   Overcast
3:10 PM 51.8 °F 48.2 °F 88% 29.79 in 5.0 mi NE 3.5 mph - 0.02 in Rain Light Rain
3:54 PM 51.1 °F 46.9 °F 86% 29.81 in 10.0 mi Variable 3.5 mph - 0.04 in Rain Light Rain
4:05 PM 51.8 °F 48.2 °F 88% 29.80 in 10.0 mi Variable 3.5 mph - 0.00 in   Overcast
4:36 PM 51.8 °F 48.2 °F 88% 29.80 in 10.0 mi North 3.5 mph - 0.00 in   Overcast
4:54 PM 52.0 °F 48.0 °F 86% 29.81 in 10.0 mi Calm Calm - 0.00 in   Overcast
5:54 PM 52.0 °F 48.0 °F 86% 29.83 in 10.0 mi Variable 3.5 mph - N/A   Mostly Cloudy
6:54 PM 48.9 °F 43.0 °F 80% 29.84 in 10.0 mi South 3.5 mph - N/A   Mostly Cloudy
7:54 PM 50.0 °F 42.1 °F 74% 29.86 in 10.0 mi West 3.5 mph - N/A   Mostly Cloudy
8:54 PM 50.0 °F 43.0 °F 77% 29.88 in 10.0 mi Calm Calm - N/A   Overcast
9:54 PM 50.0 °F 37.0 °F 61% 29.91 in 10.0 mi Variable 5.8 mph - N/A   Scattered Clouds
10:54 PM 48.9 °F 35.1 °F 59% 29.93 in 10.0 mi Variable 4.6 mph 19.6 mph N/A   Clear
11:54 PM 48.9 °F 35.1 °F 59% 29.94 in 10.0 mi Variable 4.6 mph - N/A   Clear